Location: Domiarki
(50.2181°N, 20.0307°E)
Time: 16:05:12
(UTC+00:00)

Daily predictions for brighter satellites

Satellite Brightness Start Highest point End
(mag) Time Altitude Azimuth Time Altitude Azimuth Time Altitude Azimuth
Cosmos 676 Rocket 4.2 19:28:04 10° S 19:33:16 57° ESE 19:38:28 10° NNE
SeaSat 1 2.6 19:29:07 10° SSE 19:34:01 78° WSW 19:38:58 10° NNW
Cosmos 2278 3.8 19:28:54 10° NNW 19:34:40 88° ENE 19:40:23 10° SSE
Cosmos 1190 Rocket 4.1 19:31:38 10° SSW 19:36:56 88° WNW 19:42:18 10° NNE
USA 234 3.3 19:30:56 10° ENE 19:37:23 57° SE 19:43:47 10° SW
MOS 1 Rocket 3.8 19:36:01 10° SSE 19:41:22 66° ENE 19:46:38 10° N
Cosmos 1707 2.7 19:38:43 10° SSW 19:42:20 80° W 19:45:58 10° N
Cosmos 2237 4.3 19:42:16 10° NNW 19:48:03 84° WSW 19:53:46 10° SSE
Meteor 2-10 Rocket 3.9 19:44:01 10° N 19:49:37 60° ENE 19:54:57 10° SSE
Cosmos 1400 Rocket 3.1 19:47:47 10° S 19:51:32 47° E 19:55:15 10° NNE
Cosmos 2219 Rocket 3.4 19:46:36 10° NNW 19:51:43 33° NE 19:56:48 10° ESE
SL-4 R/B 2.0 19:47:54 10° W 19:51:44 81° N 19:55:49 10° ENE
Cosmos 1455 4.4 19:51:46 10° NE 19:53:02 12° ENE 19:54:18 10° E
Cosmos 841 Rocket 3.6 19:50:39 10° NNW 19:55:57 87° ENE 20:01:14 10° SSE
SPOT 5 3.8 19:52:42 10° SSW 19:56:46 40° W 20:00:55 10° NNW
Landsat 5 4.3 19:54:38 10° NNE 19:58:14 31° E 20:01:53 10° SSE
ERS-1 Rocket 3.3 19:53:17 10° S 19:58:17 65° WSW 20:03:19 10° NNW
Orbus 7S? 4.2 19:53:41 10° WSW 19:58:43 53° NNW 20:01:37 10° NE
Cosmos 1707 Rocket 4.4 19:54:47 10° SSE 19:58:49 35° E 20:02:52 10° NNE
ATLAS CENTAUR R/B 2.3 20:00:29 10° SSE 20:03:09 21° ESE 20:05:53 10° ENE
S3M 4.1 19:56:44 10° N 20:03:10 87° W 20:09:29 10° S
SJ 16-02 2.8 20:02:46 11° SE 20:05:32 20° E 20:08:41 10° NE
Spot 2 Rocket 3.7 20:00:36 10° S 20:05:39 74° WSW 20:10:46 10° NNW
ARIANE 5 R/B 4.3 20:02:30 10° ESE 20:05:47 22° ENE 20:09:06 10° NNE
Cosmos 1953 4.0 20:06:36 10° NNE 20:09:32 20° ENE 20:12:24 10° ESE
Meteor 1-15 Rocket 4.4 20:04:42 10° NNW 20:10:17 77° W 20:15:51 10° S
Meteor 1-4 Rocket 4.0 20:09:43 12° ESE 20:11:07 16° E 20:13:03 10° NE
SL-27 R/B 3.2 20:10:27 15° SE 20:11:55 22° ESE 20:14:11 10° NE
Aureole 3 4.4 20:09:43 13° SSE 20:12:42 32° E 20:16:52 10° NNE
Cosmos 1441 Rocket 4.5 20:10:06 10° NNW 20:13:23 33° W 20:16:40 10° SSW
Cosmos 1655 Rocket 4.1 20:07:33 10° S 20:13:53 67° E 20:20:15 10° NNE
Meteor 1-23 Rocket 4.3 20:08:55 10° S 20:14:33 73° E 20:20:17 10° NNE
Cosmos 2360 Rocket 2.3 20:10:03 10° NNW 20:15:45 74° ENE 20:20:47 13° SE
SL-08 ROCKET BODY 4.5 20:11:36 10° S 20:17:45 89° ENE 20:23:50 10° N
ATLAS 2AS CENTAUR R/B 2.8 20:10:58 10° NW 20:17:54 80° NE 20:24:07 12° SE
Spot 1 4.4 20:13:50 10° NNE 20:18:15 56° ESE 20:22:53 10° S
Cosmos 1733 Rocket 3.1 20:14:17 10° N 20:18:42 69° ENE 20:22:29 14° SSE
Cosmos 2266 Rocket 4.2 20:12:24 10° S 20:18:44 84° W 20:25:12 10° N
Cosmos 1300 2.5 20:16:28 10° N 20:20:04 86° E 20:23:03 14° S
Cosmos 2333 Rocket 2.3 20:18:22 10° NNW 20:24:09 79° ENE 20:29:07 14° SE
SL-16 R/B 2.7 20:19:11 10° NW 20:24:42 53° WSW 20:29:51 12° S
H-2A R/B 4.4 20:23:36 10° ESE 20:26:46 20° ENE 20:29:55 10° NNE
Ariane Rocket 3.7 20:25:25 10° S 20:30:20 49° W 20:35:18 10° NNW
Cosmos 2082 Rocket 4.0 20:25:37 10° WSW 20:30:49 35° NW 20:36:03 10° NNE
Atlas Centaur 2 4.4 20:26:31 10° SW 20:31:22 17° S 20:34:35 13° SSE
Cosmos 807 4.3 20:29:19 15° S 20:32:01 60° E 20:35:00 10° NNE
Cosmos 2228 Rocket 3.1 20:28:23 10° S 20:32:56 84° E 20:37:32 10° NNE
SL-14 R/B 3.1 20:29:38 10° S 20:33:26 89° W 20:37:16 10° N
MetOp-A 4.1 20:29:06 14° SSE 20:33:40 89° WSW 20:38:58 10° NNW
RESURS DK-1 3.0 20:32:24 10° NW 20:36:19 47° WSW 20:39:23 16° S
Okean 1-7 3.7 20:36:48 17° SSE 20:39:39 38° E 20:43:40 10° NNE
Cosmos 1833 4.5 20:34:48 10° S 20:40:12 49° ESE 20:45:35 10° NE
Cosmos 1850 Rocket 4.0 20:37:22 10° SSW 20:42:37 83° ESE 20:47:50 10° NNE
Cosmos 1346 Rocket 3.0 20:39:38 10° NNW 20:43:29 63° W 20:46:26 16° S
Terra 3.4 20:40:42 10° SSW 20:44:47 29° W 20:48:55 10° NNW
USA 281 3.4 20:42:02 15° SE 20:47:40 72° ENE 20:54:14 10° NNW
Meteor 1-16 Rocket 4.4 20:42:24 10° N 20:48:22 83° ENE 20:53:04 17° SSE
Cosmos 2237 Rocket 4.2 20:44:12 10° NNW 20:48:37 22° NE 20:53:00 10° E
Cosmos 2322 4.4 20:43:54 10° NNW 20:49:24 47° NE 20:54:15 13° SE
Timation 1 Rocket 4.5 20:45:27 10° SSW 20:51:25 81° WNW 20:57:25 10° NNE
Cosmos 1242 Rocket 3.6 20:52:09 18° ESE 20:52:40 19° E 20:54:43 10° NE
OPS 8737 4.0 20:50:56 10° NW 20:53:53 78° NE 20:55:36 23° SE
EXPRESS MD2 1.7 20:52:39 10° WSW 20:55:02 74° S 20:56:56 12° E
Cosmos 2333 4.3 20:49:37 10° NNW 20:55:25 81° WSW 20:59:44 19° SSE
ALOS 2 4.2 20:55:20 12° ESE 20:58:32 25° ENE 21:02:07 10° N
Cosmos 1741 Rocket 4.2 20:56:33 10° SSW 21:01:49 75° WNW 21:07:10 10° NNE
CZ-2C R/B 3.9 20:58:21 10° NNE 21:02:41 53° E 21:05:28 21° S
Cosmos 968 Rocket 3.4 20:59:46 10° SSW 21:04:54 89° ESE 21:10:09 10° NNE
Cosmos 2322 Rocket 3.1 21:03:11 10° NW 21:08:26 39° WSW 21:12:36 15° S
Cosmos 1814 Rocket 4.2 21:03:24 10° NNW 21:08:40 67° WSW 21:12:20 20° S
Cosmos 1356 Rocket 4.4 21:06:37 10° SSW 21:10:38 45° WNW 21:14:43 10° N
DNEPR-1 R/B 4.4 21:04:20 10° NW 21:11:14 80° SW 21:15:13 20° SSE
Spot 4 4.4 21:10:07 19° SE 21:13:20 47° ENE 21:17:58 10° N
Cosmos 1703 Rocket 3.8 21:11:40 22° SSE 21:14:19 56° E 21:18:42 10° NNE
Cosmos 1862 Rocket 4.3 21:11:25 10° SSW 21:15:39 50° WNW 21:19:59 10° N
Cosmos 2297 Rocket 4.0 21:16:08 12° ESE 21:18:12 15° E 21:21:12 10° ENE
USA 234 3.7 21:14:02 10° ENE 21:20:31 68° NNW 21:27:00 10° WSW
Cosmos 1932 4.5 21:14:56 10° SSW 21:21:12 65° SE 21:27:26 10° NE
Okean 2 3.3 21:19:14 21° SSW 21:21:51 84° WNW 21:25:54 10° N
Cosmos 2208 Rocket 4.4 21:16:43 10° NNW 21:21:52 57° ENE 21:25:27 19° SE
PSLV R/B 3.9 21:20:23 10° NNE 21:24:23 63° ESE 21:26:30 26° S
BREEZE-M DEB (TANK) 3.8 21:08:33 10° W 21:24:54 85° S 21:29:01 10° E
Cosmos 1455 2.2 21:24:25 10° NNW 21:27:54 64° W 21:29:35 28° S
COSMOS 2428 2.9 21:24:01 10° NNW 21:29:43 71° ENE 21:33:47 20° SE
SL-4 R/B 2.1 21:26:41 10° WNW 21:30:40 77° N 21:34:54 10° E
COSMOS 2455 3.9 21:29:10 20° SSE 21:31:46 28° ESE 21:36:46 10° NE
Cosmos 2219 Rocket 2.5 21:30:25 10° NW 21:35:58 56° WSW 21:39:27 23° S
ATLAS CENTAUR R/B 2.0 21:37:08 10° WSW 21:40:31 46° NW 21:44:03 10° NNE
ARIANE 5 R/B 3.1 21:39:26 23° SSW 21:41:52 50° W 21:46:07 10° NNW
Cosmos 1315 Rocket 3.4 21:39:54 17° SSW 21:42:44 52° WNW 21:46:40 10° N
SJ 16-02 2.0 21:39:28 11° SW 21:43:31 51° WNW 21:47:46 10° NNE
Meteor 1-4 Rocket 3.9 21:41:42 14° SW 21:43:44 27° WNW 21:46:23 10° N
SL-27 R/B 4.5 21:42:44 10° WSW 21:44:50 19° WNW 21:46:56 10° N
Cosmos 1953 3.2 21:41:56 10° NNW 21:45:31 37° W 21:47:31 21° SSW
Cosmos 1745 Rocket 4.0 21:45:23 22° S 21:49:45 81° E 21:56:08 10° N
Cosmos 1241 Rocket 4.4 21:43:35 10° SW 21:49:47 87° NW 21:56:06 10° NE
Nadezhda 1 Rocket 4.1 21:51:12 10° NNW 21:57:30 70° W 22:01:33 23° S
Cosmos 2360 Rocket 3.9 21:54:58 10° NW 21:59:08 21° W 22:02:32 13° SW
H-2A R/B 2.9 21:59:14 27° SSW 22:01:21 55° W 22:05:34 10° NNW
GP-B 3.9 21:57:29 10° N 22:01:41 43° W 22:04:27 19° SW
Cosmos 1486 Rocket 4.3 22:01:40 27° S 22:04:17 52° ESE 22:09:20 10° NNE
Cosmos 2333 Rocket 4.0 22:03:41 10° NW 22:07:47 20° W 22:11:07 13° SW
ATLAS 2AS CENTAUR R/B 3.8 22:02:37 10° WNW 22:08:07 27° WSW 22:11:32 18° SSW
Cosmos 1782 Rocket 4.1 22:07:12 10° NNW 22:11:24 48° W 22:13:29 26° SSW
Cosmos 1825 3.9 22:13:44 16° ESE 22:14:43 18° E 22:17:07 10° NE
BREEZE-M DEB (TANK) 3.8 22:11:55 10° W 22:15:19 84° S 22:26:28 10° E
Cosmos 1408 2.6 22:22:39 37° SW 22:23:29 51° WNW 22:26:26 10° N
Cosmos 1242 Rocket 4.1 22:23:20 15° WSW 22:24:37 20° WNW 22:26:45 10° NNW
SL-16 R/B 3.8 22:19:51 10° NNW 22:24:57 32° NE 22:30:01 10° ESE
BREEZE-M DEB (TANK) 2.1 22:22:22 10° WNW 22:25:24 51° N 22:27:23 10° E
BlueWalker 3 2.0 22:24:27 37° SSW 22:25:27 48° SSE 22:29:05 10° ENE
Cosmos 405 Rocket 2.7 22:24:40 10° N 22:28:25 69° ENE 22:29:56 34° SSE
Cosmos 2151 Rocket 3.9 22:25:41 10° N 22:30:04 59° ENE 22:32:18 27° SSE
Cosmos 1300 Rocket 4.5 22:28:00 10° NNW 22:31:57 36° W 22:33:55 23° SW
USA 281 4.4 22:28:55 17° SSW 22:32:41 28° WSW 22:38:14 10° NW
Cosmos 546 4.5 22:29:14 10° W 22:33:07 78° SSW 22:36:59 10° ESE
Meteor 1-24 Rocket 3.8 22:30:01 26° S 22:33:26 80° E 22:39:07 10° NNE
Cosmos 2237 Rocket 2.2 22:27:47 10° NNW 22:33:31 87° ENE 22:37:15 22° SSE
H-2A R/B 2.4 22:29:28 10° NNE 22:33:39 51° E 22:35:22 31° SSE
ALOS 2 3.3 22:32:43 27° SSW 22:34:40 43° W 22:38:53 10° NNW
Okean 2 Rocket 3.3 22:32:42 10° N 22:37:09 64° ENE 22:39:28 27° SSE
NOSS 8 (E) 4.3 22:35:35 29° SW 22:37:18 89° SE 22:40:24 10° NE
Cosmos 371 Rocket 3.2 22:38:27 28° SSW 22:41:03 87° ESE 22:45:54 10° NNE
Cosmos 2227 Rocket 3.2 22:38:35 22° SSE 22:41:14 34° ESE 22:46:16 10° NE
CZ-4C R/B 1.9 22:42:24 29° SSW 22:44:44 63° SE 22:50:23 10° NE
Cosmos 1703 3.5 22:44:41 31° SW 22:46:12 56° WNW 22:49:51 10° N
BREEZE-M DEB (TANK) 3.3 22:45:04 31° SW 22:46:19 58° SSE 22:52:21 10° E
Cosmos 1980 3.7 22:40:41 10° NNW 22:46:22 74° WSW 22:49:45 25° SSE
Cosmos 1709 Rocket 4.4 22:45:07 20° SSW 22:49:35 58° WNW 22:55:52 10° N
Cosmos 1674 Rocket 3.7 22:49:36 31° SSE 22:51:34 65° E 22:55:54 10° NNE
Cosmos 2084 Rocket 4.2 22:51:58 29° SSE 22:53:04 34° SE 22:56:51 10° ENE
Cosmos 1378 Rocket 3.5 22:51:43 32° S 22:53:42 80° E 22:58:06 10° NNE
Cosmos 2221 Rocket 3.7 22:52:51 30° SSE 22:54:56 65° E 22:59:22 10° NNE
NOSS 0 Rocket 4.4 22:49:35 10° NW 22:55:29 45° WSW 22:58:44 25° SSW
Sich 1 Rocket 3.5 22:54:51 10° NNW 22:59:16 79° W 23:01:19 31° S
Cosmos 2184 Rocket 4.2 22:57:04 24° S 23:01:01 68° E 23:07:23 10° NNE
Cosmos 2297 Rocket 2.2 22:57:54 25° SSW 23:01:19 82° ESE 23:07:00 10° NNE
Meteor 2-5 Rocket 4.0 22:57:47 23° SSW 23:01:35 66° WNW 23:07:26 10° N
Cosmos 2219 4.5 22:59:15 18° SSE 23:02:06 28° ESE 23:06:46 10° NE
USA 234 4.2 22:56:51 10° ENE 23:03:06 50° N 23:09:21 10° WNW
GEOS 3 Rocket 3.6 22:58:09 10° NE 23:03:19 63° SE 23:06:13 26° SSW
Cosmos 1025 Rocket 4.0 23:01:49 22° SE 23:03:59 37° E 23:07:59 10° NNE
Cosmos 1892 2.4 23:06:43 39° S 23:07:54 88° ESE 23:11:27 10° N
SL-4 R/B 2.2 23:05:25 10° WNW 23:09:24 49° SSW 23:12:03 20° SE
COSMOS 2428 4.2 23:09:07 10° NW 23:13:25 22° WSW 23:15:45 17° SW
CENTAUR R/B 3.1 23:12:45 24° S 23:15:46 41° ESE 23:22:11 10° NE
COSMOS 2455 3.1 23:12:16 15° SW 23:17:15 68° NW 23:23:18 10° NNE
Cosmos 2154 Rocket 4.1 23:13:33 24° S 23:17:32 73° E 23:23:49 10° NNE
Cosmos 1538 Rocket 4.2 23:13:51 10° NNW 23:19:04 72° ENE 23:23:15 16° SSE
ATLAS CENTAUR R/B 4.1 23:17:17 10° NW 23:19:04 13° NNW 23:20:54 10° N
Cosmos 1503 Rocket 4.3 23:15:43 21° SW 23:19:15 65° WNW 23:24:33 10° NNE
Aureole 1 Rocket 4.3 23:18:43 18° SE 23:20:12 23° E 23:23:31 10° NE
Cosmos 1777 Rocket 4.1 23:18:39 23° SW 23:21:59 72° WNW 23:27:18 10° NNE
ADEOS II 4.5 23:30:15 10° ENE 23:32:27 13° E 23:34:39 10° ESE
Cosmos 332 Rocket 3.8 23:31:18 25° SSW 23:34:09 84° WNW 23:39:04 10° NNE
Cosmos 2263 Rocket 3.1 23:33:49 19° SSE 23:37:09 36° ESE 23:42:11 10° NE
Okean 1 Rocket 3.5 23:36:52 10° NNW 23:41:02 46° W 23:43:06 26° SSW
Resurs 1-4 Rocket 3.9 23:38:38 10° NE 23:42:49 23° E 23:46:58 10° SE
Cosmos 1825 3.1 23:47:12 22° WSW 23:48:40 32° WNW 23:51:49 10° N
Helios 1A Rocket 2.6 23:46:37 25° SSE 23:48:46 86° WSW 23:52:36 10° NNW
